Regional Weather Roundup
Issued by NWS

Home | Current Version | Previous Version | Text Only | Print | Product List | Glossary Off
Versions: 1 2 3 4 5 6 7 8 9 10 11 12 13 14 15 16 17 18 19 20 21 22 23 24 25 26 27 28 29 30 31 32 33 34 35 36 37 38 39 40 41 42 43 44 45 46 47 48 49 50

000
ASUS45 KBOU 231607
RWRCO

WEATHER ROUNDUP FOR COLORADO
NATIONAL WEATHER SERVICE DENVER/BOULDER CO
900 AM MST SUN NOV 23 2014

NOTE: "FAIR" INDICATES FEW OR NO CLOUDS BELOW 12000 FEET WITH NO
SIGNIFICANT WEATHER AND/OR OBSTRUCTIONS TO VISIBILITY.

COZ001>005-013-030-031-231700-
...NORTHWEST COLORADO...

CITY           SKY/WX    TMP DP  RH WIND       PRES   REMARKS
CRAIG          LGT SNOW  27  24  89 SW10      29.94R VSB 3/4 WCI  17
HAYDEN         CLOUDY    25  21  86 W9        29.90R WCI  15
MEEKER         CLOUDY    25  22  88 S7        29.94R WCI  17
MOUNT WERNER   NOT AVBL
STEAMBOAT SPGS CLOUDY    24  22  93 SW6       29.88R VSB 1   WCI  17
WALDEN         PTSUNNY   19  14  79 NE5       29.83R WCI  13
$$

COZ006>008-011-231700-
...WEST CENTRAL VALLEYS...

CITY           SKY/WX    TMP DP  RH WIND       PRES   REMARKS
GRAND JUNCTION CLOUDY    31  31 100 NW9       29.97R WCI  23
MONTROSE       CLOUDY    34  27  75 NW13      29.94R WCI  25
EAGLE          FLURRIES  30  28  93 W5        29.91R WCI  25
RIFLE          CLOUDY    28  26  92 W3        29.93R
DELTA          LGT SNOW  35  31  86 CALM      29.95R
NUCLA          CLOUDY    34  23  64 NW18      29.98R WCI  23
$$

COZ017>023-064>068-231700-
...SOUTHWEST COLORADO...

CITY           SKY/WX    TMP DP  RH WIND       PRES   REMARKS
DURANGO        MOSUNNY   35  21  56 W9        29.84R WCI  28
CORTEZ         CLOUDY    34  22  61 NW16G30   29.95R WCI  24
PAGOSA SPRINGS MOSUNNY   32  29  86 CALM      29.80R
TELLURIDE      CLOUDY    24  15  69 W10G21    29.88F WCI  13
WOLF CREEK PAS LGT SNOW  12  10  92 MISG      29.78R
$$

COZ009-010-012-014-032>034-037-058>063-231700-
...CENTRAL COLORADO...

CITY           SKY/WX    TMP DP  RH WIND       PRES   REMARKS
ASPEN          FLURRIES  24  20  84 N7        29.86R WCI  16
BUENA VISTA    PTSUNNY   28  12  50 NW20G25   29.78R WCI  15
COPPER MTN     CLOUDY    12   5  73 W18G26    29.78R WCI  -5
BERTHOUD PASS  HVY SNOW   5   1  85 NW36      29.71F VSB<1/4 WCI -21
COTTONWOOD PAS PTSUNNY   27  10  50 W8G16     29.77R WCI  18
GUNNISON       PTSUNNY   28  18  64 SW6       29.85R WCI  22
KREMMLING      PTSUNNY   30  18  59 CALM      29.87R
LEADVILLE      PTSUNNY   16   8  71 N24G30    29.77R WCI  -2
MONARCH PASS     N/A     12   9  85 W18       29.85R WCI  -5
SALIDA         CLOUDY    32  19  59 N9        29.85S WCI  24
SUNLIGHT       CLOUDY   N/A N/A N/A W3        29.86R
WILKERSON PASS CLOUDY    18   9  68 W5        29.76R WCI  11
$$

COZ069>075-231700-
...SAN LUIS VALLEY/SANGRE DE CRISTO MOUNTAINS...

CITY           SKY/WX    TMP DP  RH WIND       PRES   REMARKS
ALAMOSA        PTSUNNY   32  22  66 N9        29.76R WCI  24
LA VETA PASS   SNOW      19  18  93 NE9       29.75R VSB 1/4 WCI   9
SAGUACHE       CLOUDY    28  21  74 NW17      29.78R WCI  16
$$

COZ035-036-038>040-231700-
...NORTHERN COLORADO FRONT RANGE...

CITY           SKY/WX    TMP DP  RH WIND       PRES   REMARKS
DENVER INTL AP PTSUNNY   35  21  56 NW6       29.80R WCI  30
DMNS CITY PARK   N/A     39  22  50 W5        29.79S
AURORA         PTSUNNY   32  23  70 CALM      29.80R
FRONT RANGE AP NOT AVBL
ERIE MUNI ARPT MOSUNNY   39  20  46 SE3       29.80R
BOULDER MUN AP MOSUNNY   37  23  56 SE7       29.78S
CENTENNIAL     PTSUNNY   32  27  81 W5        29.79R WCI  27
BROOMFIELD     PTSUNNY   37  21  52 SW5       29.79
FORT COLLINS   MOSUNNY   37  18  44 N14       29.80R
LONGMONT       MOSUNNY   42  24  49 CALM      29.81S
$$

COZ041-046-047-076>085-087-088-231700-
...PIKES PEAK/PALMER DIVIDE AND SOUTHERN FOOTHILLS...

CITY           SKY/WX    TMP DP  RH WIND       PRES   REMARKS
COLO. SPRINGS  CLOUDY    32  24  72 NW16      29.78R WCI  21
A. F. ACADEMY  MIX PCPN  30  23  74 NW14      29.78R WCI  20
ELLICOTT       NOT AVBL
FALCON         NOT AVBL
FORT CARSON    CLOUDY    33  23  65 N18G26    29.76R WCI  22
LIMON          CLOUDY    32  19  58 N21G31    29.76R WCI  20
MONUMENT HILL  CLOUDY    27  23  86 N9        29.77R WCI  17
TRINIDAD       HVY SNOW  32  30  92 NW9       29.79R VSB 1/4 WCI  24
$$

COZ042>045-048>051-090-091-231700-
...NORTHEAST COLORADO...

CITY           SKY/WX    TMP DP  RH WIND       PRES   REMARKS
GREELEY ARPT   MOSUNNY   36  19  51 N13       29.81R
AKRON          CLOUDY    34  17  50 NW17      29.76R WCI  23
BURLINGTON     CLOUDY    40  13  33 N28G36    29.71R
WRAY           CLOUDY    41  15  34 N18G32    29.74R
STERLING       CLOUDY    41  21  45 N21G26    29.76R
HOLYOKE        CLOUDY    41  19  42 N22G30    29.74R
FORT MORGAN    CLOUDY    37  18  47 N13G18    29.80R
$$

COZ086-089-092>099-231700-
...SOUTHEAST COLORADO...

CITY           SKY/WX    TMP DP  RH WIND       PRES   REMARKS
PUEBLO         CLOUDY    40  21  46 N26G33    29.77R
LA JUNTA       CLOUDY    41  20  43 N14G22    29.78R
LAMAR          CLOUDY    43  14  31 N25G38    29.68R
SPRINGFIELD      N/A     40  19  43 N32G44    29.71R
$$


USA.gov is the U.S. government's official web portal to all federal, state and local government web resources and services.